GFSWCAN_sfc_wetblb_057.txt.gz
Wetbulb
57.03 57.42 56.85 56.41 56.69 57.22 57.56 57.30 55.95 54.43 54.09 53.55 52.96 52.17 52.71 53.73 52.21 45.51 43.21 44.67 42.71 36.71 36.91 39.93 40.22 37.18 37.25 36.30 34.34 34.19 34.53 34.13 31.39 28.29 27.13 27.42 24.88 30.34 27.16 28.60 27.59 26.75 21.32 20.33 20.66 18.35 19.81 35.24 33.43 30.28 32.15 33.71 34.27 33.56
55.82 57.36 56.68 56.16 56.73 57.25 57.49 57.16 56.31 54.60 53.79 53.32 52.64 51.62 51.82 53.19 53.33 46.71 42.45 44.53 43.16 39.15 37.62 40.73 40.69 40.35 39.83 39.34 37.05 33.83 35.89 32.98 34.28 30.10 28.64 28.65 28.67 28.40 28.83 25.11 29.75 25.98 29.92 25.71 26.40 26.35 33.64 33.87 33.78 35.23 35.59 34.36 33.08 32.79
53.25 57.03 56.47 56.04 56.63 57.14 57.28 56.98 56.29 54.91 54.03 53.41 52.29 50.99 51.72 52.83 53.10 46.14 41.08 42.07 41.23 37.81 37.63 38.38 37.76 40.66 42.28 40.98 41.32 36.11 35.48 37.28 35.95 36.56 33.47 32.33 30.99 30.14 25.61 26.81 26.00 31.86 32.94 28.85 29.46 31.34 33.06 33.98 34.66 35.76 35.43 34.59 35.57 35.03
52.40 56.74 56.06 55.83 56.29 56.86 56.95 56.92 56.29 54.86 53.54 52.82 51.82 50.76 51.79 52.23 50.38 46.66 41.73 40.75 39.80 37.69 33.52 35.52 42.04 38.45 41.36 41.01 40.72 39.74 38.89 37.62 36.65 35.30 32.67 26.38 27.98 33.32 29.13 30.79 29.98 32.92 32.20 30.03 29.12 30.54 32.22 32.98 34.05 35.02 35.69 35.66 35.17 35.67
51.90 55.55 55.68 55.76 56.18 56.67 56.69 56.75 55.99 54.86 53.62 52.86 51.93 51.20 51.16 50.85 49.25 44.54 41.75 41.45 41.06 37.35 33.11 34.03 37.09 39.04 39.43 40.08 40.15 39.79 38.87 36.29 33.78 32.26 31.00 27.92 31.97 31.53 29.05 29.37 27.20 32.73 31.83 29.10 28.63 33.08 31.89 31.44 34.45 36.23 35.26 34.45 34.67 34.78
51.58 55.77 55.51 55.76 56.17 56.60 56.33 55.86 54.98 54.36 53.71 53.44 52.01 51.46 50.50 50.13 47.68 39.43 34.82 39.99 43.64 40.70 35.48 27.61 35.40 35.86 37.98 39.08 38.47 38.00 37.68 35.68 33.92 32.86 30.89 31.89 34.36 31.36 21.63 23.09 31.82 34.56 34.98 34.89 33.35 32.77 33.80 34.21 36.20 36.04 34.47 34.83 35.37 35.03
51.17 55.28 55.10 55.75 56.15 56.06 55.72 54.80 54.14 53.75 53.26 53.12 52.27 51.22 49.82 48.46 43.13 36.44 34.98 38.34 45.80 39.95 34.57 27.72 27.61 34.71 35.53 36.07 35.51 35.74 35.49 33.96 34.36 32.01 31.46 31.71 31.63 30.60 21.89 20.87 32.55 34.01 33.42 32.96 33.76 34.52 31.63 33.85 33.68 35.29 35.39 36.50 37.11 35.80
52.00 55.19 54.77 55.29 55.95 55.83 55.11 54.27 53.66 53.10 52.96 52.52 51.73 50.59 49.46 48.79 45.74 40.32 43.08 46.21 41.21 35.49 33.74 25.45 24.99 29.83 33.35 31.75 31.13 33.31 32.34 32.66 32.40 31.16 31.09 30.65 30.57 27.19 21.99 30.37 33.15 35.39 33.58 32.91 33.90 33.60 33.26 34.24 34.57 34.53 35.74 35.76 34.95 34.60
52.56 54.90 54.86 55.30 55.90 55.49 54.69 53.99 53.06 52.61 52.23 51.75 50.08 48.67 43.95 40.80 36.99 39.44 47.75 43.94 39.34 34.31 25.63 22.49 23.34 22.78 33.05 30.62 31.26 32.24 31.33 26.17 30.23 27.24 29.42 29.29 25.43 22.36 30.58 31.91 33.20 34.62 33.16 33.70 32.80 32.60 33.03 33.16 33.64 34.34 33.28 34.05 33.00 33.71
51.07 54.01 54.30 54.66 55.57 54.95 54.10 52.95 52.01 51.67 51.40 49.76 43.61 37.68 35.12 39.03 46.54 44.59 38.64 34.19 32.95 31.98 31.90 25.38 27.62 25.78 31.14 27.30 25.55 26.71 24.37 23.85 21.59 26.49 28.65 22.94 26.04 30.76 32.46 34.17 34.69 35.39 34.90 34.22 31.14 29.75 31.06 31.65 32.79 32.43 32.64 33.75 33.49 33.74
50.92 54.16 54.10 54.78 54.65 53.61 52.59 51.70 51.40 50.85 48.32 41.64 38.04 36.86 40.58 45.91 38.19 34.48 30.43 28.33 27.93 24.96 29.56 29.39 29.31 28.57 32.60 29.05 27.74 28.42 22.94 23.21 19.39 23.92 24.68 22.39 22.10 27.91 31.06 31.51 32.48 33.01 35.39 34.66 34.25 34.41 34.31 33.56 33.14 32.75 33.07 33.14 33.33 33.40
51.36 53.69 54.43 54.33 53.20 52.21 51.33 50.50 50.56 45.35 42.87 42.14 41.57 42.77 39.79 34.84 30.58 27.37 24.92 28.43 25.48 26.09 29.43 29.26 29.21 30.64 30.83 32.52 29.07 25.90 22.34 20.22 17.51 25.36 20.44 21.25 25.39 29.66 30.69 31.86 31.89 33.70 34.02 35.00 35.49 35.62 35.02 33.91 33.72 32.68 32.06 32.23 32.93 33.50
51.44 52.34 54.09 53.29 52.24 51.54 50.64 50.31 48.59 47.46 45.89 41.13 37.77 33.46 30.27 26.51 20.34 24.20 20.51 23.48 23.24 28.64 29.38 29.38 28.03 29.92 29.96 30.67 27.32 23.12 18.01 19.23 25.98 18.45 21.86 24.04 27.18 30.44 30.61 31.62 32.88 34.14 35.04 34.68 34.89 35.15 35.42 34.46 34.39 33.38 33.39 33.64 33.01 32.64
51.37 51.13 53.33 52.05 51.17 50.43 49.76 48.80 48.01 45.76 39.96 34.54 30.66 23.17 26.55 19.27 23.36 25.40 26.73 27.40 28.87 30.18 30.71 29.34 27.30 28.99 28.33 26.56 24.33 18.67 23.33 22.80 15.08 15.36 20.56 24.71 27.38 29.84 29.77 31.10 32.06 30.76 31.40 31.14 32.38 33.04 33.19 32.93 32.76 33.52 33.30 33.01 32.32 32.27
50.68 52.33 51.61 50.50 50.04 49.46 48.59 48.31 47.15 42.25 37.63 31.04 29.99 27.74 22.89 27.19 27.65 27.85 28.84 29.16 29.61 33.58 30.85 28.65 27.81 28.07 21.68 21.22 21.40 22.32 24.72 22.14 20.41 20.77 23.46 26.95 28.15 29.36 29.17 30.55 30.21 31.19 32.12 32.25 31.91 32.45 32.87 32.50 31.83 32.00 33.00 32.90 32.48 32.80
51.24 51.65 49.35 49.33 48.49 48.09 48.17 47.33 43.97 41.14 35.64 30.78 26.81 24.60 27.49 27.78 26.82 29.34 29.15 29.43 30.84 31.51 30.94 29.31 23.97 19.44 21.10 22.51 18.05 19.42 17.90 17.41 21.57 24.56 27.05 28.53 28.29 28.38 28.86 30.50 31.40 30.94 30.63 31.71 32.01 32.12 32.40 32.22 32.22 32.49 32.42 32.55 32.69 33.01
51.28 46.25 48.84 47.95 47.66 47.92 47.12 41.61 38.79 33.66 30.32 23.76 25.68 30.67 29.67 31.43 30.11 29.24 32.16 30.82 35.29 31.79 25.57 24.61 16.09 18.31 20.97 13.09 17.13 21.57 20.67 22.89 25.56 26.91 28.62 28.89 29.01 29.72 29.98 29.92 31.16 32.21 32.43 32.11 31.99 32.43 32.65 33.40 32.61 31.85 31.52 33.09 32.82 33.26
45.45 47.62 47.85 47.54 46.55 45.04 41.22 39.16 34.07 29.16 25.66 30.46 25.51 29.62 30.75 31.16 31.25 31.31 31.21 34.68 32.37 30.14 29.30 26.36 25.36 21.47 18.97 16.56 19.75 24.77 25.94 27.20 27.83 28.14 28.94 29.70 29.63 29.76 31.87 31.74 32.73 32.59 32.11 32.14 32.18 32.29 32.40 32.08 31.53 30.90 31.57 31.72 31.98 32.02
46.10 46.10 47.14 46.66 44.61 40.64 35.75 35.30 33.86 23.34 27.64 30.43 31.30 32.20 32.06 31.14 31.69 33.24 35.10 33.48 33.41 33.57 30.66 23.04 19.23 20.08 24.57 25.51 25.77 26.34 26.84 28.10 28.39 29.49 30.17 30.39 30.71 31.61 32.21 32.08 32.06 31.48 31.65 31.79 32.13 32.32 32.40 32.47 30.86 30.96 29.72 31.82 27.63 30.90
46.77 46.61 46.50 46.19 43.76 37.31 32.84 32.27 33.78 30.26 28.82 31.13 32.05 31.00 31.07 30.54 31.28 32.75 34.68 32.27 32.66 31.85 25.03 20.70 24.60 27.36 27.63 28.82 29.73 29.48 29.93 30.45 29.47 28.20 29.32 30.86 31.50 31.29 31.56 31.73 31.81 31.94 31.95 32.11 32.43 35.56 32.58 32.49 32.89 33.24 33.04 34.14 35.12 33.28
44.77 45.26 45.44 41.07 36.96 36.15 34.16 31.75 30.48 31.41 31.93 30.75 31.62 31.75 29.51 30.53 30.02 29.81 30.08 31.74 29.02 27.18 25.60 29.91 29.49 30.95 31.71 31.88 32.10 32.37 31.65 31.39 30.09 30.14 29.88 28.34 31.52 31.18 31.58 32.15 31.88 31.63 31.41 31.28 30.96 31.74 33.26 31.42 32.60 33.41 36.04 35.95 35.63 35.18
43.17 44.57 38.74 39.01 32.82 32.57 32.62 34.94 33.51 33.64 31.43 31.23 30.91 30.59 28.96 27.99 27.17 28.32 30.38 28.49 28.21 32.73 30.70 30.42 31.63 32.86 31.89 31.60 32.25 32.03 33.09 32.41 31.75 31.68 35.09 34.24 31.17 31.12 31.47 32.02 31.38 29.23 30.87 30.63 31.86 31.42 31.39 32.06 32.91 34.24 36.20 36.33 37.65 36.43
42.82 40.18 34.55 33.34 31.66 31.81 29.86 34.21 28.77 29.33 28.54 28.15 29.31 26.67 26.11 26.63 27.72 30.74 27.18 28.93 30.24 31.14 32.89 33.26 33.32 33.61 33.55 33.33 32.57 32.32 32.65 31.94 31.11 31.18 32.08 31.72 31.74 31.95 31.60 31.81 32.29 31.72 30.57 31.02 32.38 31.96 31.70 35.49 35.65 36.08 35.91 35.67 35.62 35.57
41.00 34.08 30.43 29.04 29.71 27.42 32.07 29.14 30.97 29.76 28.59 26.81 26.00 23.51 25.59 25.63 27.60 24.91 25.27 27.36 29.27 30.74 30.74 31.69 32.10 30.70 30.34 30.36 30.20 31.36 32.51 32.37 31.88 31.54 31.74 31.25 30.46 30.86 32.15 32.22 32.38 32.23 32.47 32.14 31.78 31.54 31.53 31.84 34.76 33.45 34.81 34.45 34.54 34.40
30.93 28.79 29.64 26.93 30.35 24.57 26.88 26.92 27.91 27.28 26.19 26.84 26.02 24.93 24.53 26.81 22.54 24.56 25.42 26.40 27.26 28.01 30.13 29.98 30.10 30.41 29.11 29.14 29.79 30.80 32.86 32.50 31.03 30.53 31.51 32.15 31.21 30.09 29.85 30.16 30.12 31.56 32.54 30.54 29.71 30.46 33.37 33.52 33.53 32.79 31.74 33.02 33.23 33.80
23.59 27.30 26.48 25.94 25.65 25.23 25.87 24.89 26.41 26.85 27.04 26.20 25.77 25.02 24.80 24.41 20.13 20.34 24.78 26.53 27.13 27.19 27.21 28.78 28.78 27.82 28.09 29.58 29.52 29.06 31.38 32.70 32.08 30.74 30.89 31.80 31.50 30.27 28.97 28.80 28.46 29.12 32.68 32.56 32.45 33.05 32.94 33.32 33.23 32.82 32.36 32.75 34.09 33.93
22.73 23.29 27.74 30.23 29.38 29.10 27.67 28.57 28.94 27.95 26.29 24.14 23.98 24.66 22.69 17.27 19.81 25.03 27.21 27.55 26.13 26.95 28.93 29.46 30.61 29.97 28.39 25.86 30.24 31.92 31.86 32.54 32.45 32.32 32.26 32.06 32.26 32.21 31.47 29.28 28.96 30.93 33.92 34.19 34.64 34.34 33.72 33.44 32.70 32.53 32.32 32.92 33.57 33.58
28.63 29.29 26.21 27.98 28.20 29.42 27.25 27.53 26.75 26.04 25.96 26.46 26.91 23.42 22.87 23.13 23.13 27.31 28.64 29.94 28.07 30.32 28.76 29.90 31.86 31.45 30.88 31.54 32.04 31.53 31.13 31.63 32.19 31.84 31.00 30.56 30.61 31.54 32.12 32.76 33.75 37.20 33.56 33.06 32.88 33.42 34.70 34.12 33.51 33.02 32.83 32.25 32.92 33.87
28.46 30.37 29.69 26.75 27.81 27.78 27.25 27.08 26.47 27.20 27.86 27.77 25.69 25.12 25.85 27.83 29.13 28.98 28.88 26.78 29.72 28.61 27.75 27.54 25.47 30.32 30.19 30.26 30.70 30.83 30.93 30.78 29.00 27.12 26.92 24.36 29.93 28.45 30.70 31.62 30.99 30.22 30.61 33.38 35.68 36.28 35.92 35.78 33.91 33.15 33.22 32.96 33.31 33.87
28.37 30.21 28.17 27.35 25.26 24.50 26.77 27.08 26.12 27.41 28.01 28.74 28.91 28.49 28.67 28.82 25.28 23.17 26.93 27.16 27.28 27.87 28.31 26.67 27.45 29.68 27.64 29.15 28.19 28.39 29.57 30.20 30.19 28.77 26.28 25.30 25.82 29.21 30.07 30.03 30.23 30.66 31.47 34.03 33.40 33.72 35.51 35.16 33.69 32.13 31.65 32.12 32.44 32.94
29.72 28.69 26.77 26.33 23.34 25.98 27.00 28.40 28.87 28.61 28.13 27.75 27.90 27.52 26.86 27.21 29.00 27.92 28.89 25.90 24.28 25.13 27.89 24.86 25.16 27.12 28.82 28.59 28.30 28.27 27.60 28.73 29.24 30.14 29.88 29.03 29.07 29.19 29.75 29.43 29.98 30.74 32.04 32.75 31.56 31.06 30.68 32.66 31.76 30.23 29.87 29.68 30.74 31.96
28.38 27.16 26.28 23.48 24.58 27.03 28.18 27.80 27.42 27.50 27.36 27.37 26.79 26.87 27.03 27.42 27.02 29.03 28.31 27.35 27.90 28.38 31.17 30.38 28.21 27.47 29.16 29.51 29.87 29.82 33.63 29.69 29.96 30.49 30.41 28.92 28.75 28.62 29.04 29.24 30.30 30.92 30.90 31.32 31.08 31.68 31.76 31.02 30.09 29.86 29.45 29.32 29.87 31.75
26.34 27.00 26.64 25.73 23.04 24.86 26.36 25.97 25.92 23.84 24.96 25.12 25.83 26.61 27.06 27.61 27.14 29.36 24.58 24.37 27.55 28.56 28.82 28.86 29.62 30.38 29.99 29.92 29.78 29.69 31.83 28.70 31.51 34.69 34.43 33.51 32.74 31.15 29.75 29.00 29.76 31.82 30.73 30.70 30.69 30.07 29.46 29.08 28.76 28.70 29.02 29.68 30.17 30.38

GFSWCAN_sfc_wetblb_063.txt.gz
Wetbulb
51.04 51.10 51.50 52.21 53.00 53.15 51.93 52.64 54.01 56.95 56.70 56.39 55.15 54.90 53.88 53.45 53.82 45.92 42.39 44.14 43.06 36.28 35.96 38.58 39.03 35.38 35.51 35.08 33.15 33.52 34.25 33.80 32.13 30.77 30.53 29.98 28.36 30.92 29.11 29.83 28.86 28.24 25.31 24.41 24.32 23.57 23.39 35.36 35.06 33.16 35.92 36.63 36.73 36.57
50.80 50.78 51.07 51.84 52.46 52.98 52.04 51.24 53.41 56.78 56.54 56.34 55.22 54.89 53.90 53.44 52.82 47.97 42.00 43.62 41.44 38.71 36.93 39.09 39.40 39.56 38.98 38.18 35.23 32.52 35.95 33.03 35.10 31.32 30.19 28.84 29.34 28.44 28.95 26.60 30.28 28.21 30.86 28.98 28.80 29.49 34.34 35.85 36.47 37.27 36.94 36.37 36.54 36.64
50.37 50.46 50.53 51.61 52.08 52.49 51.84 50.67 52.34 55.35 55.72 55.60 54.77 54.56 53.32 53.44 53.78 46.73 41.67 40.46 39.92 37.10 36.51 36.99 36.82 39.81 40.67 39.27 39.50 35.79 35.02 36.02 35.01 35.39 32.21 31.59 31.92 30.32 27.40 28.25 29.12 31.43 32.64 31.44 31.47 32.40 32.70 35.82 36.90 37.30 37.43 37.00 37.45 37.70
49.85 50.02 50.26 51.34 51.95 52.02 52.22 51.31 52.48 54.92 55.51 55.49 54.74 53.81 52.91 53.09 52.96 47.32 42.24 41.13 39.24 37.37 33.97 34.73 40.36 37.32 39.96 39.01 39.11 39.02 37.86 37.10 36.56 36.16 33.49 30.05 30.63 32.67 29.77 30.92 30.19 32.17 32.56 30.62 30.34 32.29 34.05 34.80 35.80 36.75 36.84 37.25 37.03 37.46
49.52 49.71 50.35 51.03 51.80 52.23 52.14 52.57 53.23 54.83 55.88 55.34 54.48 53.57 52.38 52.95 51.11 43.95 41.20 40.44 39.33 38.00 32.30 33.33 35.95 37.25 37.94 38.52 38.45 38.63 37.83 35.82 34.26 33.76 32.25 30.08 31.49 31.74 28.67 29.95 28.15 32.31 32.38 31.18 31.34 33.96 34.55 34.73 35.80 36.79 36.04 36.06 36.78 36.72
49.06 49.45 50.13 50.73 51.28 51.88 52.17 52.52 52.47 54.54 55.32 54.71 53.81 52.77 52.60 51.78 48.79 39.95 36.75 39.36 42.39 40.01 34.65 28.39 34.12 34.60 36.57 37.48 36.97 36.33 36.51 34.55 33.22 32.59 30.51 31.31 33.64 31.76 25.69 27.03 32.69 33.42 34.12 35.06 35.27 34.83 34.54 35.20 36.20 36.73 35.87 36.33 37.09 36.95
48.80 49.40 49.93 50.59 50.93 51.83 52.06 52.23 52.11 53.63 55.54 53.93 52.62 52.24 52.23 50.71 39.55 35.26 35.81 37.64 43.56 38.48 34.23 28.03 27.78 33.78 33.93 34.86 34.18 34.72 34.41 33.17 33.79 31.18 30.65 31.36 31.87 30.34 25.14 24.53 32.62 33.30 35.05 35.37 35.00 34.88 33.76 35.05 35.10 36.46 37.17 37.82 39.49 38.42
48.64 49.30 49.80 50.77 51.16 51.88 52.03 51.76 51.68 55.07 54.32 52.91 52.06 51.06 50.15 48.55 44.73 39.62 40.28 45.26 39.66 34.68 33.23 25.76 24.85 29.95 33.35 30.59 31.26 32.06 31.89 32.29 31.01 30.38 30.55 30.74 30.14 27.52 24.33 30.98 32.49 34.70 33.68 33.39 33.52 34.56 35.03 35.90 35.59 35.68 36.62 36.83 36.16 35.63
48.63 48.85 49.76 50.66 50.85 51.74 51.66 51.19 51.74 54.16 52.85 51.98 50.93 49.23 43.32 38.61 36.55 38.48 44.80 41.78 36.54 35.03 26.78 24.85 24.62 24.62 32.05 28.82 29.90 30.80 29.46 26.59 29.01 28.26 29.10 29.46 26.79 24.75 31.46 32.17 32.34 34.40 34.58 34.51 33.25 33.91 33.88 34.26 34.47 35.08 35.17 35.28 34.25 34.32
48.29 48.87 50.13 50.67 51.11 51.21 51.42 52.60 54.43 52.37 51.10 49.93 44.12 37.52 33.29 38.00 47.07 45.37 36.65 33.59 32.35 30.54 30.00 24.52 27.35 26.63 30.02 26.83 27.41 27.30 26.71 25.34 23.72 27.21 28.21 25.99 26.70 30.71 32.07 33.60 34.37 34.82 35.11 33.32 31.83 31.14 32.11 32.56 33.68 34.09 33.85 34.11 33.44 33.36
48.56 49.55 49.95 50.43 50.89 50.90 49.94 54.18 52.11 50.25 48.38 41.83 36.66 35.94 41.13 45.90 37.45 33.50 28.94 28.94 27.62 25.75 29.01 28.36 28.83 27.78 31.16 28.25 27.19 28.04 24.11 24.16 22.34 25.41 26.21 24.69 23.37 28.16 30.39 31.90 33.30 34.77 34.84 33.80 34.01 34.27 34.76 34.71 33.91 33.06 33.07 33.51 33.85 33.68
48.55 49.19 49.92 50.52 50.73 50.74 50.64 51.81 49.95 46.44 43.91 41.45 40.78 41.98 39.41 35.66 32.32 28.61 24.36 27.61 24.62 25.66 28.68 29.17 29.47 29.85 29.26 30.76 28.64 26.79 23.00 21.39 19.19 25.14 22.70 22.45 26.31 29.39 30.29 31.05 31.97 32.42 32.77 33.72 34.46 34.74 34.49 34.29 34.21 33.97 33.67 33.51 33.71 33.83
48.81 49.41 49.98 50.60 51.06 49.68 52.46 50.00 48.56 47.51 45.87 41.93 37.61 34.43 33.24 29.76 20.88 25.03 19.31 21.60 22.65 27.84 29.47 29.67 28.05 28.57 28.32 28.77 25.92 23.39 19.58 20.03 26.09 20.27 22.91 25.22 27.85 29.32 29.89 30.67 31.83 32.66 33.82 33.83 34.52 34.98 35.54 35.05 35.00 33.62 33.36 33.53 33.17 32.58
49.03 49.38 49.98 50.31 49.86 51.48 50.16 48.41 47.82 46.39 41.17 35.63 32.44 27.18 30.01 24.78 23.74 24.85 26.13 27.93 29.89 31.24 31.01 28.98 26.57 28.35 27.77 25.59 23.87 20.69 22.46 23.21 18.60 17.42 21.11 26.10 27.92 29.29 29.78 30.49 32.42 32.51 33.50 33.90 34.07 33.98 33.42 33.38 33.34 33.73 33.40 33.14 32.65 32.91
48.90 49.33 49.46 49.40 48.92 51.08 48.50 48.10 47.01 43.08 38.68 33.87 32.71 28.64 23.78 26.78 25.09 25.69 28.17 30.18 31.29 34.56 31.02 28.71 26.95 27.43 21.54 20.64 21.67 23.38 22.05 17.32 20.47 20.88 24.40 27.23 28.22 28.16 28.19 29.41 30.22 31.21 31.79 32.33 31.92 32.58 33.04 33.01 32.75 32.96 33.91 33.73 33.07 32.91
48.58 48.62 46.41 48.86 48.11 48.91 47.97 46.33 42.91 40.54 35.66 31.97 28.11 22.69 26.20 26.64 25.28 26.73 29.63 30.69 34.59 33.13 31.20 29.68 24.71 22.40 22.07 23.13 19.08 19.78 18.47 18.01 23.03 25.57 27.28 27.03 27.12 27.92 28.62 29.76 30.27 30.63 31.11 31.72 31.93 32.27 32.53 32.46 32.42 32.99 32.87 33.00 33.23 33.01
48.11 43.48 48.27 47.85 49.77 47.84 45.63 41.47 39.52 33.53 31.86 25.93 23.56 28.23 27.92 27.34 28.57 29.30 32.23 32.06 36.07 34.63 27.77 24.56 21.10 20.98 21.11 14.01 16.75 22.43 21.08 24.01 26.08 26.72 26.84 27.63 27.90 28.56 29.06 29.82 30.65 31.52 31.78 31.49 31.51 31.75 32.04 32.64 32.41 31.86 31.80 33.50 32.94 33.47
43.23 45.09 48.27 48.88 45.56 43.31 40.61 38.68 33.74 31.87 27.10 27.01 24.87 27.94 28.49 29.44 31.05 31.66 32.80 35.39 32.29 29.17 28.51 27.13 26.31 22.20 19.40 18.50 19.69 24.37 24.98 26.46 25.89 26.54 27.48 28.40 28.82 29.29 31.00 31.00 31.35 31.25 30.91 30.87 31.06 31.29 31.57 31.63 31.37 31.50 31.82 32.39 32.82 32.85
46.11 48.25 48.29 45.33 42.46 36.16 32.72 33.13 34.17 26.29 27.52 29.34 29.67 30.26 30.67 31.19 33.32 34.81 35.71 32.97 32.75 32.22 29.22 23.35 19.78 20.97 24.60 25.18 25.40 25.86 26.27 26.85 26.58 27.50 28.98 29.19 29.68 30.08 30.36 30.68 30.74 29.99 30.14 30.27 30.84 31.75 32.14 32.01 31.36 31.67 31.29 31.97 31.49 31.72
48.39 46.65 45.46 45.41 43.50 35.44 31.41 31.14 35.43 31.02 28.52 29.95 30.77 29.69 30.55 31.39 33.51 34.91 32.91 32.05 31.73 30.93 26.46 22.66 25.33 26.91 26.64 27.53 27.91 28.44 28.82 28.93 29.71 28.59 28.66 29.66 29.71 29.74 30.08 30.09 30.08 30.53 30.53 30.87 31.28 34.39 32.22 32.32 32.67 32.82 32.95 32.97 33.21 32.59
44.09 43.89 44.97 39.44 35.79 35.74 33.32 30.66 30.25 30.78 30.86 29.75 31.25 31.41 30.54 31.87 31.54 32.40 31.56 32.38 30.76 26.74 28.36 30.88 28.76 29.39 30.25 29.94 29.68 30.32 30.09 30.63 30.53 31.01 30.36 28.39 29.61 29.64 29.85 30.26 30.41 30.31 30.43 30.48 30.17 30.84 33.20 31.54 31.97 32.68 32.85 32.82 32.85 33.32
42.80 42.87 36.03 37.60 32.09 32.45 32.42 33.97 31.98 32.12 30.49 30.67 30.72 31.31 29.71 29.22 29.16 30.87 32.21 30.51 29.84 32.06 32.70 30.47 30.16 30.21 29.26 29.02 29.49 31.17 31.50 31.07 30.90 32.12 33.78 33.67 29.33 29.05 29.52 30.45 30.59 28.82 29.90 29.71 30.89 31.01 30.91 31.45 32.50 32.76 32.30 32.34 33.40 33.18
40.58 37.95 33.02 32.18 31.22 30.66 29.01 33.62 29.15 30.10 28.32 28.34 30.09 28.19 27.63 27.95 29.43 32.02 29.05 30.14 31.81 34.18 33.61 32.03 31.78 31.91 31.05 30.39 30.57 30.64 31.18 31.15 30.22 30.19 30.69 30.16 29.99 30.45 30.32 30.49 30.75 30.43 29.58 30.08 31.23 31.06 30.91 33.96 33.45 31.83 31.57 31.43 31.58 31.66
39.55 33.60 30.97 29.65 29.84 26.36 30.74 28.53 30.95 29.30 29.06 27.79 26.61 24.43 25.74 26.82 29.09 26.43 26.52 28.50 31.50 32.72 31.96 31.58 31.88 29.52 28.91 29.57 29.42 30.29 30.99 31.16 30.39 30.00 30.38 29.81 29.17 29.44 30.20 30.70 31.12 31.29 31.68 31.17 30.66 30.06 30.17 30.64 33.61 32.92 32.45 32.22 32.42 32.29
31.62 28.74 29.45 25.89 29.62 26.40 25.98 26.66 26.54 27.54 25.94 26.42 25.75 24.99 26.45 28.73 24.84 25.35 25.71 28.67 30.58 30.82 31.08 30.56 30.72 31.26 29.77 29.19 29.27 30.24 31.25 31.05 30.09 29.69 30.08 30.47 29.11 28.55 29.00 29.41 29.77 30.50 31.35 30.06 29.69 30.26 30.36 30.76 31.71 32.29 32.03 32.18 31.77 32.12
24.02 27.27 26.47 26.05 26.69 25.64 25.64 24.61 25.15 25.30 26.09 25.68 26.26 27.47 27.85 26.77 23.56 22.82 26.75 29.87 30.41 31.47 30.84 31.58 31.46 28.82 28.04 29.54 28.82 28.31 29.90 30.71 30.79 30.07 29.87 30.21 30.37 30.03 29.11 29.02 28.99 29.88 30.91 31.15 30.91 30.22 30.19 30.94 32.24 31.58 31.16 31.58 32.69 32.11
21.88 23.30 25.61 28.48 27.82 27.53 26.26 27.36 28.61 27.63 25.94 24.34 25.40 25.49 25.79 22.40 22.71 26.22 29.38 30.17 29.95 29.24 31.67 32.59 32.74 31.91 29.48 26.29 28.34 29.59 30.00 31.48 31.33 31.31 31.23 30.91 31.37 31.41 30.78 29.31 28.99 30.74 32.08 31.84 31.73 31.20 30.40 30.51 31.19 32.32 31.84 31.95 32.13 32.49
27.91 28.25 25.69 26.89 27.51 28.46 25.96 26.93 26.91 26.36 26.60 27.64 27.87 24.67 25.02 25.39 25.60 28.99 30.40 30.59 28.97 28.20 29.17 29.62 30.14 29.98 28.88 29.83 30.54 30.69 29.92 30.29 30.50 30.76 30.61 29.42 29.26 30.11 30.65 31.18 31.93 36.10 32.64 32.17 31.80 31.76 31.64 32.30 33.28 33.00 32.15 31.48 31.87 33.19
27.63 29.09 28.75 25.66 27.71 28.10 27.87 27.85 27.22 27.81 29.44 29.27 27.01 26.27 26.70 28.56 29.51 29.46 29.44 29.02 29.72 30.06 28.64 27.87 25.71 29.16 29.23 29.99 29.79 29.45 31.29 31.71 29.70 27.43 27.28 25.39 26.96 27.00 29.73 31.49 31.71 30.25 30.49 31.74 35.92 34.29 34.77 34.89 33.17 33.23 32.44 32.02 32.55 33.45
28.12 30.20 27.63 27.04 25.66 25.41 26.51 27.30 27.17 29.07 30.25 30.11 29.99 29.24 29.36 28.87 27.86 27.96 29.90 29.97 29.67 29.14 28.80 30.20 29.75 30.80 29.63 30.10 28.32 27.66 28.67 29.42 29.63 29.43 27.39 26.58 26.94 28.47 29.79 29.40 28.49 28.73 29.61 30.06 29.93 30.30 34.73 32.36 32.79 31.69 30.96 30.54 30.88 31.97
30.24 29.33 27.28 26.83 25.01 26.61 28.43 29.90 30.50 30.40 29.54 28.73 29.17 28.96 27.35 27.81 28.64 28.60 27.18 22.58 26.17 28.92 29.79 28.17 26.58 27.76 30.59 29.71 30.48 29.18 27.94 28.78 28.61 29.45 29.51 28.39 28.08 30.06 30.34 29.22 29.04 29.12 29.72 29.65 28.99 28.72 30.00 29.72 30.50 29.82 29.02 29.18 30.13 31.39
28.44 27.78 27.25 25.04 25.64 28.81 30.59 29.53 28.55 28.10 28.13 27.43 26.18 27.22 27.35 27.26 25.94 26.98 26.00 27.17 28.14 28.47 30.49 31.00 29.73 28.89 29.90 30.05 30.27 30.51 34.10 30.21 30.05 29.80 30.04 28.15 28.28 29.01 29.58 29.08 29.26 29.68 29.36 28.58 28.69 29.89 31.06 28.69 27.32 27.23 28.33 28.80 29.83 30.05
29.01 28.95 28.81 27.87 26.64 27.05 27.96 27.66 26.70 25.76 25.41 24.68 24.80 25.74 25.86 26.06 25.35 26.56 24.05 23.67 26.62 27.99 28.82 29.18 29.16 29.69 29.55 29.86 29.40 29.67 31.41 28.28 30.99 34.37 34.67 34.13 33.48 31.61 28.76 28.46 29.24 29.75 28.81 28.04 28.54 29.39 29.27 28.94 28.31 28.06 28.14 28.54 29.22 30.09

GFSWCAN_sfc_wetblb_069.txt.gz
Wetbulb
52.46 52.72 52.46 52.99 53.05 53.10 52.73 52.54 52.96 53.53 54.41 53.84 52.76 53.23 54.53 55.40 54.71 53.34 51.84 54.96 50.62 47.74 49.12 45.65 46.04 44.76 45.12 46.08 43.47 43.92 42.23 42.58 42.31 41.12 42.69 43.51 42.30 43.11 41.21 41.87 39.43 38.91 37.71 36.38 38.04 35.11 33.08 43.84 42.06 38.89 43.66 44.73 45.31 44.97
52.33 51.98 52.96 53.11 53.29 52.98 52.76 53.12 53.31 53.43 53.69 53.31 52.88 53.10 52.45 53.89 54.99 53.87 49.84 53.13 52.81 48.05 47.34 46.73 46.54 46.56 45.51 45.89 46.66 45.27 46.32 45.02 46.63 44.69 45.34 46.01 42.48 42.91 42.18 38.32 41.96 37.30 41.17 40.85 40.48 40.81 43.60 45.01 44.81 45.57 45.66 44.68 45.02 45.21
52.32 52.09 52.76 52.98 53.02 52.53 52.64 52.93 53.02 53.13 53.22 52.87 52.58 51.26 50.67 52.48 54.80 53.36 51.26 51.58 49.73 47.87 47.70 45.76 45.20 47.05 48.02 47.20 48.13 46.03 47.22 47.94 46.96 48.49 48.50 47.21 42.75 45.21 39.78 39.82 40.88 41.77 43.19 40.22 40.38 43.23 43.42 44.12 46.06 45.52 45.31 45.09 45.75 45.80
52.37 52.24 52.63 52.88 52.87 52.85 52.81 52.20 52.02 52.68 53.07 52.86 52.84 52.30 51.65 51.34 54.02 53.49 50.70 51.29 49.64 49.70 44.69 44.98 47.46 45.66 47.61 48.23 47.11 47.46 47.60 48.18 49.16 49.86 48.12 47.13 44.43 45.17 42.94 42.01 41.36 42.76 42.23 40.78 41.30 43.68 43.81 44.34 45.25 46.38 45.00 45.10 44.45 44.26
51.76 52.24 52.35 52.46 52.60 52.52 52.59 51.75 51.64 52.23 52.72 52.58 52.56 52.38 51.85 50.97 53.03 52.87 52.70 52.26 51.33 48.03 45.45 43.88 45.21 45.45 47.11 47.31 46.57 47.20 47.81 48.05 47.98 46.11 45.76 45.59 45.99 44.19 44.08 42.52 41.15 43.87 42.22 40.08 39.58 44.51 44.71 44.39 45.97 46.45 44.41 43.38 43.58 42.34
51.40 51.48 51.66 51.82 52.18 52.18 52.13 52.07 51.89 52.06 52.38 52.18 52.29 52.11 51.97 52.67 53.05 49.82 45.95 52.05 52.57 49.33 45.77 41.75 43.87 43.72 45.36 47.06 46.77 46.62 47.63 48.00 48.95 47.99 46.62 45.75 44.19 45.37 42.03 40.02 44.63 46.22 46.60 46.30 44.05 45.23 44.88 44.52 45.72 46.00 44.46 43.91 43.37 42.51
51.06 51.12 51.14 51.31 51.47 51.51 51.51 51.47 51.53 51.71 51.93 51.81 51.83 52.05 51.37 52.16 50.20 45.53 45.17 46.77 50.70 50.71 44.41 40.24 40.60 43.04 44.03 45.41 46.29 46.41 47.22 47.14 47.90 46.50 45.12 45.53 43.90 43.94 43.17 39.11 43.82 45.46 46.26 45.81 45.53 44.44 42.58 43.39 42.94 44.85 44.62 43.88 43.75 43.10
50.89 50.97 50.90 50.81 51.08 51.18 51.14 51.29 51.29 51.49 51.36 51.45 51.63 51.33 50.74 51.81 49.19 45.79 48.89 46.58 48.99 47.69 45.82 40.31 39.56 40.47 44.00 43.30 42.48 45.59 45.09 46.18 44.54 45.30 43.64 43.10 42.35 42.51 35.92 43.16 45.12 45.06 44.58 44.85 44.43 45.09 44.41 45.38 44.68 43.73 43.93 42.99 41.48 41.44
50.55 50.72 50.72 50.80 50.98 51.06 51.09 51.04 51.19 51.27 51.27 51.28 51.10 50.66 48.20 45.77 44.04 46.40 47.59 44.96 47.84 46.06 40.96 39.06 37.73 38.18 43.05 42.31 43.64 43.12 44.86 41.43 43.02 42.02 42.20 41.62 40.92 36.27 41.06 42.95 44.25 43.52 42.56 43.03 44.11 43.35 43.72 42.94 43.04 42.74 42.53 41.87 40.91 41.01
50.18 50.28 50.33 50.45 50.50 50.69 50.90 50.97 50.97 50.92 50.62 50.46 47.93 42.99 37.75 44.27 47.27 46.08 41.76 40.88 43.13 44.92 43.74 43.02 44.13 37.69 42.48 41.89 41.02 41.03 43.04 41.11 37.45 40.38 40.58 37.85 38.50 43.80 44.77 44.46 44.71 44.93 44.27 44.24 40.74 39.65 41.15 41.87 41.99 42.12 42.04 42.25 41.76 41.60
49.91 49.84 49.82 49.88 49.93 50.20 50.66 50.63 50.54 50.25 49.59 45.78 39.33 37.80 44.84 47.16 44.11 42.07 38.31 39.28 41.23 39.73 41.36 41.64 42.90 37.42 42.03 39.96 39.11 42.10 39.53 38.88 35.29 37.56 36.22 37.98 37.33 41.54 41.95 43.43 44.20 45.23 44.73 44.16 44.57 44.32 44.08 43.63 42.46 42.30 41.92 41.75 41.45 41.69
49.64 49.67 49.55 49.54 49.55 49.83 50.02 49.97 49.86 47.87 46.02 42.83 43.64 45.74 44.62 39.65 39.31 35.98 36.02 39.53 38.79 37.17 39.33 39.08 39.86 41.63 39.88 43.91 40.10 38.35 37.31 36.18 35.01 37.89 35.26 34.06 40.68 40.62 40.09 41.73 42.89 44.64 44.07 43.71 43.65 43.21 43.52 43.45 43.74 42.99 42.51 41.91 41.95 41.61
49.59 49.47 49.30 49.36 49.48 49.84 49.79 49.75 49.51 48.28 46.66 44.36 40.32 36.82 35.75 35.69 31.54 31.48 29.29 33.03 35.48 37.85 38.68 38.89 37.81 39.73 39.53 42.44 39.23 38.03 34.83 34.97 37.31 34.07 33.69 38.24 39.82 39.82 40.17 41.65 42.07 43.71 43.78 42.91 42.54 42.96 43.00 42.47 42.82 42.88 42.17 41.68 41.58 41.40
49.10 48.76 48.90 48.97 49.14 49.35 49.37 49.16 48.98 46.80 42.65 34.95 32.67 30.57 31.67 30.68 32.51 35.70 37.19 38.03 40.35 40.49 40.22 42.08 38.65 40.05 39.79 38.45 38.69 35.71 35.12 35.69 31.72 30.31 33.23 40.76 40.39 39.84 40.31 41.33 41.47 41.63 42.26 42.26 42.32 42.27 42.12 42.40 41.57 41.39 41.51 41.86 41.34 40.92
48.47 48.55 48.55 48.46 48.80 49.01 49.11 49.04 48.74 45.29 39.74 33.99 35.08 30.59 32.63 38.80 39.72 41.33 42.89 40.99 39.98 41.92 41.78 39.33 39.66 40.25 36.75 33.41 37.28 32.38 28.86 29.96 32.47 34.45 40.48 41.63 41.00 40.23 40.30 41.30 41.95 41.40 41.51 41.76 42.49 41.52 40.95 41.40 41.27 41.07 41.74 42.11 41.50 40.94
48.28 48.09 47.42 48.39 48.54 48.55 48.74 48.57 46.78 42.63 38.87 36.10 35.77 34.76 39.13 37.19 35.58 37.53 39.95 38.70 41.63 41.63 43.15 42.71 38.45 36.48 34.88 35.42 31.43 31.73 32.19 31.37 37.13 39.94 41.87 41.28 40.45 40.67 40.97 41.82 42.13 42.27 41.77 41.07 41.15 41.18 41.14 40.90 40.54 40.76 41.15 41.54 41.17 40.21
47.89 44.38 47.57 48.25 48.33 48.34 48.09 43.34 37.55 32.38 32.60 31.93 35.19 38.34 39.10 40.14 37.98 38.49 40.92 39.45 42.60 40.69 39.39 40.29 33.84 36.32 36.49 33.39 33.91 36.58 35.08 41.06 42.04 40.84 40.40 41.21 40.53 40.91 41.62 41.63 41.32 41.20 40.96 41.10 40.91 40.87 40.78 40.51 40.57 40.24 39.58 40.95 40.68 40.71
44.72 47.20 47.91 48.29 47.79 46.43 37.28 37.56 34.69 32.02 31.39 35.03 34.92 36.04 38.55 40.52 39.83 39.63 40.82 40.96 40.54 41.21 40.70 39.48 37.18 32.24 32.58 32.36 33.72 37.84 39.93 40.11 41.25 40.13 40.35 41.02 41.47 41.68 41.23 40.58 40.76 40.89 40.97 40.87 40.77 40.44 40.18 40.08 39.78 40.77 39.96 40.41 40.48 40.53
46.95 47.78 48.11 48.02 44.31 36.36 32.22 32.06 34.50 32.02 34.15 35.96 36.68 37.37 37.76 38.32 40.76 41.42 40.34 41.11 40.54 40.26 38.75 39.99 36.52 38.38 36.25 39.92 41.39 40.77 39.24 38.51 38.13 39.16 40.13 40.93 41.51 40.80 40.92 40.93 41.05 40.89 40.58 40.24 40.13 40.54 41.06 40.49 40.64 40.72 41.17 40.93 40.40 40.36
47.48 47.69 47.86 45.58 44.09 35.32 31.77 31.64 35.05 34.04 32.19 34.31 36.37 35.50 36.46 36.71 38.73 39.64 38.46 37.49 37.08 38.00 36.39 36.00 39.58 40.02 40.44 40.45 42.50 42.30 40.97 40.40 38.74 37.10 37.63 39.84 40.93 40.81 40.45 40.31 40.41 40.49 40.29 40.42 40.43 39.83 40.41 40.26 40.68 40.80 40.91 40.28 38.94 38.06
45.97 46.34 45.95 39.99 35.76 34.89 34.36 32.15 32.98 35.72 34.81 34.20 35.80 36.16 34.48 37.10 35.45 35.44 35.31 37.98 37.20 38.20 37.17 38.51 38.35 36.92 39.08 40.29 42.94 42.17 40.56 40.18 39.15 39.08 37.47 37.61 39.93 40.62 40.34 40.79 40.55 40.29 39.95 40.06 40.02 39.07 39.22 40.37 39.81 40.22 39.92 39.29 38.54 38.02
43.72 43.83 35.95 37.66 32.24 32.17 32.84 37.04 35.56 36.67 35.35 34.65 34.93 36.03 33.93 33.30 34.12 35.22 37.29 36.95 37.52 39.11 39.88 38.45 37.63 36.91 37.53 38.42 39.43 40.59 40.88 41.59 41.34 40.89 40.60 40.06 38.81 38.65 38.74 39.29 39.36 39.21 40.18 40.52 40.46 40.08 40.02 40.00 39.86 39.03 38.24 37.43 36.95 36.93
41.15 39.21 33.92 32.02 31.77 31.97 30.65 37.28 33.78 35.34 31.25 32.82 34.92 32.81 32.61 33.27 35.73 38.14 35.21 37.82 39.08 40.46 39.61 39.14 38.73 39.78 38.94 39.38 40.23 40.81 41.75 40.93 39.92 39.99 39.63 40.66 40.32 40.34 39.98 39.92 41.01 40.30 39.43 39.50 41.16 40.41 39.24 38.47 36.34 37.27 36.82 36.41 35.86 35.60
40.49 33.93 31.97 31.82 31.97 30.01 31.97 31.57 35.05 33.38 33.60 32.39 31.78 29.70 31.48 32.95 35.25 33.86 32.73 34.84 38.02 38.68 37.95 37.26 38.08 36.77 37.77 38.04 38.15 39.27 40.71 41.88 40.36 40.04 40.97 39.77 38.53 39.00 40.32 39.99 40.69 41.52 41.76 40.50 40.23 39.34 38.27 37.54 36.54 36.47 35.80 35.07 34.84 33.96
31.49 29.86 31.54 28.49 32.17 30.42 29.70 30.16 30.86 31.50 30.30 31.31 29.86 28.75 30.63 33.93 31.19 30.78 31.41 34.73 36.29 37.28 38.36 38.01 37.68 37.50 36.56 37.78 38.77 39.48 41.80 40.85 38.94 38.07 39.51 40.73 39.95 39.01 38.64 39.26 39.85 40.48 41.14 39.42 37.81 37.46 37.06 37.14 36.52 35.48 34.62 34.02 33.05 32.76
26.73 29.46 29.80 29.52 29.84 30.14 30.50 28.92 29.69 30.92 31.40 29.69 29.75 31.82 32.52 31.71 30.25 30.64 32.54 35.36 37.37 38.92 38.18 37.25 37.08 37.64 38.38 39.27 37.84 37.59 39.24 42.43 41.64 38.72 38.91 40.62 39.83 39.12 38.02 37.18 36.73 37.02 40.74 40.58 38.41 37.16 36.35 36.25 35.55 34.42 33.88 33.48 32.60 32.83
25.68 26.97 30.77 33.97 34.04 33.68 31.87 33.17 35.23 33.68 29.54 27.92 29.49 29.20 29.85 28.91 29.94 33.49 36.28 38.66 39.57 41.49 40.90 40.65 40.29 39.68 38.92 39.04 40.12 40.72 40.95 41.75 42.04 41.16 40.61 41.10 41.99 42.65 41.34 39.48 38.57 39.81 40.04 39.86 39.15 38.00 36.34 35.56 34.92 34.60 34.01 33.90 33.56 33.20
29.24 29.51 27.80 29.94 31.24 34.49 31.72 33.04 31.73 31.57 30.39 33.03 32.02 28.61 30.66 32.47 33.83 34.48 35.00 38.20 40.92 42.61 41.32 42.25 42.76 42.51 41.13 40.53 40.20 39.19 38.93 38.41 38.40 38.81 38.81 38.82 39.59 40.56 41.34 41.48 41.96 39.35 39.81 39.58 38.64 37.92 37.20 36.53 35.65 35.07 34.10 33.06 32.94 34.49
29.40 32.18 32.48 29.78 32.36 33.04 33.14 31.98 33.01 34.05 34.87 33.31 32.15 31.44 30.91 30.61 30.99 31.74 32.17 35.70 41.37 41.27 39.54 39.12 39.77 40.42 39.24 38.99 39.02 38.61 37.84 37.97 36.52 34.49 34.99 34.68 35.16 36.16 39.30 39.09 38.40 38.96 38.56 37.73 38.11 37.99 37.45 36.95 36.39 35.49 34.32 33.60 33.93 34.79
30.01 33.31 31.15 29.27 28.12 28.11 29.53 32.02 31.65 32.81 34.50 33.94 32.58 31.44 30.56 29.78 31.00 33.25 33.57 35.64 37.32 38.15 38.79 38.86 38.24 37.35 35.68 35.43 35.11 36.04 39.18 40.60 41.00 39.50 37.33 36.60 38.07 38.14 38.89 38.37 38.10 38.04 37.71 36.55 35.84 36.27 37.21 36.50 35.18 34.26 33.31 32.63 32.77 32.87
32.51 31.68 28.72 28.15 25.88 28.72 31.10 32.87 33.59 33.71 33.34 32.69 33.53 31.13 29.31 29.90 31.53 32.26 32.63 35.65 37.14 36.89 36.18 36.15 37.08 37.48 36.55 35.63 35.36 35.20 34.62 37.56 39.15 39.77 41.25 40.68 38.86 38.76 38.74 38.23 38.00 37.85 37.48 36.52 35.91 34.93 34.46 34.13 33.27 32.07 31.20 30.65 31.14 31.56
31.59 29.39 28.20 26.14 27.04 31.44 34.10 32.36 31.54 31.28 31.80 31.73 30.83 31.16 30.94 31.86 29.19 30.80 30.64 34.34 35.34 35.59 36.91 37.05 36.19 36.64 38.40 38.46 39.16 40.21 39.03 37.02 36.77 37.58 38.19 38.48 38.44 38.74 38.17 37.44 37.17 36.94 36.04 35.06 34.41 34.01 33.87 32.98 32.09 31.33 30.44 29.93 30.03 30.22
30.80 31.02 30.58 29.95 29.95 29.61 31.26 31.50 30.29 29.44 29.24 28.71 28.82 30.65 30.25 30.83 28.27 29.29 31.47 31.76 34.79 36.28 35.90 37.04 37.87 38.34 38.90 39.17 38.44 38.72 38.76 37.68 37.97 38.36 38.80 39.07 38.69 37.55 36.60 36.38 36.31 35.92 34.93 34.21 33.81 33.57 32.60 31.76 30.99 30.52 30.23 30.00 29.74 30.17

GFSWCAN_sfc_wetblb_075.txt.gz
Wetbulb
55.01 54.61 54.32 54.70 54.89 54.77 54.73 54.28 54.11 54.19 54.07 54.03 54.21 54.19 54.22 54.10 54.27 52.12 49.34 50.19 47.88 43.54 43.54 45.72 45.44 39.46 39.97 38.71 35.33 37.00 35.84 36.31 34.21 32.34 33.05 34.62 32.58 35.96 33.63 34.67 32.69 30.78 26.79 26.06 27.63 24.14 24.50 38.35 37.02 31.65 34.58 37.70 39.42 38.80
54.25 54.32 54.23 54.38 54.31 54.66 54.60 54.34 54.18 54.26 54.11 53.88 53.89 54.16 53.89 53.46 51.51 53.71 48.46 50.56 50.84 47.00 45.01 45.71 45.03 44.87 44.28 43.37 39.31 38.18 37.27 37.84 38.45 34.17 35.24 38.75 35.39 34.92 34.16 30.09 35.58 29.72 34.76 31.57 31.16 30.72 37.65 38.06 37.18 39.33 40.42 39.16 37.95 38.85
53.72 53.61 53.86 53.81 53.95 54.28 54.39 54.07 54.20 54.23 53.91 53.60 53.40 53.65 54.17 53.70 53.34 50.75 47.65 47.74 47.61 45.75 44.76 44.44 43.69 48.19 45.47 44.91 43.75 37.68 39.53 42.07 41.79 42.40 40.62 40.14 36.41 35.84 31.00 32.18 32.20 34.16 36.95 32.77 32.92 34.80 37.47 39.01 39.30 40.80 40.52 40.05 40.48 40.00
53.20 53.25 53.37 53.13 53.05 53.23 53.70 53.97 53.51 53.99 53.99 53.64 53.49 53.56 53.91 53.58 52.44 50.34 46.19 47.27 48.66 45.51 39.96 39.44 46.00 43.48 45.54 44.11 43.86 43.03 41.67 43.63 42.42 40.91 41.61 38.12 33.87 37.74 33.62 34.80 32.84 34.79 35.08 33.22 31.91 34.64 35.93 38.29 38.96 40.18 40.49 40.82 40.46 39.71
52.72 52.71 52.84 52.73 52.70 52.91 53.60 53.66 53.36 53.47 53.69 53.46 53.32 53.36 53.51 53.06 51.71 47.27 44.36 46.14 51.12 45.51 39.85 40.69 44.00 43.58 44.02 43.07 42.92 43.39 41.75 40.45 38.95 39.22 37.96 36.35 38.46 35.42 34.63 33.29 31.33 35.87 34.87 31.23 30.89 36.13 36.41 36.61 39.44 40.87 39.52 39.12 39.15 38.08
52.27 52.32 52.37 52.35 52.42 53.03 53.12 53.06 53.19 53.22 53.17 53.00 52.94 53.03 52.61 52.49 51.18 45.28 38.88 44.95 47.41 48.23 42.98 37.04 43.23 41.20 42.34 42.44 41.83 41.25 41.39 39.66 39.83 40.23 37.57 36.89 38.71 37.93 27.96 27.14 36.66 37.83 38.22 37.84 36.88 37.80 38.24 38.85 40.63 40.62 39.43 39.08 38.91 37.82
51.79 51.98 52.13 52.36 52.70 52.65 52.34 52.33 52.56 52.86 52.80 52.48 52.31 52.30 51.72 51.72 47.51 42.18 40.53 45.12 48.38 50.61 42.99 36.77 37.13 40.35 41.30 41.05 40.25 40.36 41.09 39.62 40.39 38.29 36.47 36.67 35.92 38.22 28.66 28.24 37.88 39.66 38.97 38.26 39.04 38.65 36.11 36.95 37.53 39.98 40.46 40.19 41.39 38.60
51.49 51.69 51.88 51.96 52.36 52.17 51.88 51.97 52.17 52.25 52.26 52.21 51.81 51.23 50.86 50.70 48.77 45.28 45.18 49.17 48.84 45.99 44.65 35.35 36.66 35.35 38.83 36.30 36.33 39.94 38.36 37.88 38.49 37.52 36.03 35.46 35.44 33.66 28.77 35.95 39.76 40.11 37.53 37.29 37.79 38.00 38.00 38.42 38.59 38.53 38.59 37.67 36.29 35.91
51.10 51.35 51.48 51.44 52.12 52.11 52.00 51.87 52.12 52.01 51.58 51.47 50.71 49.72 46.21 45.72 43.14 44.43 50.24 50.38 48.99 43.96 33.81 35.76 32.20 30.81 37.93 36.58 36.93 37.19 38.36 32.23 37.12 33.91 34.85 34.80 31.91 28.44 34.97 35.94 37.68 39.24 37.98 37.47 37.45 37.72 37.55 37.24 36.59 36.35 36.03 35.55 35.04 35.55
50.60 50.97 51.33 51.78 51.96 52.07 51.87 51.85 51.65 51.07 50.83 50.07 44.70 41.97 37.33 42.89 49.22 48.09 44.23 41.52 41.41 40.90 40.41 34.74 38.04 33.22 36.75 35.12 33.80 34.86 34.47 32.96 28.98 32.92 34.15 28.56 30.73 36.86 38.86 39.38 38.75 38.96 38.87 38.10 35.47 34.39 34.87 34.57 35.09 35.00 34.90 35.97 36.13 35.83
50.36 50.51 51.28 51.21 51.34 51.39 51.40 51.45 51.08 50.15 48.81 41.34 39.00 35.78 42.12 48.43 43.17 41.11 35.24 34.50 33.76 32.65 37.71 35.76 37.33 33.48 38.23 35.59 34.83 35.27 31.37 33.63 26.30 31.13 30.32 27.18 27.81 34.28 36.91 38.67 38.44 38.50 38.76 38.26 37.68 37.17 37.59 37.38 36.22 35.93 35.87 36.18 36.06 36.34
49.98 50.59 50.95 51.09 51.09 51.03 50.91 50.63 50.12 44.87 41.24 41.38 40.80 43.44 43.07 39.32 35.97 32.28 30.64 33.75 32.87 31.87 35.26 34.79 35.71 37.37 37.27 39.28 34.54 31.12 31.64 29.61 24.61 31.24 25.17 25.63 31.16 35.12 36.00 36.88 37.30 37.78 38.23 38.09 38.66 38.17 37.58 38.14 37.52 36.59 35.05 35.35 35.95 36.26
49.69 50.13 50.74 50.68 50.67 50.98 50.52 50.04 49.14 47.70 45.97 41.87 39.44 36.46 34.25 32.83 26.44 27.89 26.36 29.62 32.19 33.80 35.12 34.93 33.78 35.67 35.67 36.98 32.84 32.00 27.10 24.47 30.34 23.26 25.34 27.93 33.04 34.63 35.61 36.75 36.41 36.91 37.77 37.50 37.16 37.47 37.66 37.01 37.68 37.14 35.80 35.91 36.37 36.50
49.47 50.05 50.05 50.28 50.31 50.34 49.86 49.26 48.13 46.37 40.93 35.30 32.52 28.02 27.71 25.67 28.71 30.90 29.50 30.74 35.31 34.66 37.47 38.57 33.63 34.89 35.18 33.46 32.13 28.43 29.01 27.11 21.13 21.83 25.77 30.43 32.89 34.08 35.55 36.46 36.60 35.64 36.68 36.71 36.82 37.37 37.47 37.41 36.34 36.44 36.42 36.37 36.32 35.90
49.34 49.67 49.38 49.17 49.62 49.77 49.39 48.79 47.86 42.99 38.64 33.35 32.50 25.22 27.78 30.65 32.05 32.23 34.53 33.79 35.39 38.37 39.16 36.18 35.65 35.68 32.26 32.74 31.84 26.10 23.23 19.89 24.47 25.40 28.55 33.13 34.64 35.56 35.39 35.63 35.50 35.80 36.52 36.34 36.57 36.62 35.87 35.39 35.37 34.97 35.81 36.06 36.25 36.53
49.31 48.93 47.04 48.85 48.99 48.91 48.69 47.84 45.41 42.34 38.32 34.56 32.52 31.73 32.87 29.80 29.21 31.55 34.17 33.37 36.52 39.21 39.22 37.71 34.19 32.64 30.99 31.00 24.48 23.85 21.98 23.59 27.70 30.25 33.55 34.07 34.46 35.86 35.77 36.65 36.38 36.61 36.40 36.24 35.90 35.73 35.54 35.09 35.08 34.97 35.14 35.63 36.01 36.47
48.76 43.16 48.03 48.61 48.72 48.47 47.89 43.56 39.97 34.67 32.59 31.15 29.14 34.45 31.96 32.85 31.59 33.74 35.10 34.08 39.88 38.91 33.82 34.33 31.97 31.22 29.29 19.45 20.77 25.85 25.62 29.60 32.47 32.83 35.03 35.32 34.99 35.64 36.60 37.24 36.92 37.16 36.04 34.85 34.27 35.13 35.01 35.37 34.72 34.88 33.98 34.81 36.13 36.41
44.12 45.99 48.77 48.87 48.08 46.50 43.04 38.45 34.75 32.34 30.27 32.41 30.25 31.87 33.28 35.06 35.12 36.31 36.04 36.91 37.98 37.79 37.45 34.57 34.45 27.71 23.73 22.26 24.41 31.06 33.18 32.98 32.66 34.73 35.27 35.07 36.01 37.20 38.36 36.60 36.67 36.58 35.26 34.64 34.94 34.38 34.16 34.11 34.49 33.74 34.64 35.28 35.43 35.00
45.85 46.68 48.69 48.52 45.89 37.27 32.17 32.50 35.05 29.75 30.40 31.87 31.97 35.05 35.77 35.83 37.64 37.81 37.89 38.00 37.91 38.12 37.13 34.77 31.60 28.04 28.44 31.77 33.96 34.06 35.49 33.66 34.64 33.86 33.66 34.60 36.66 36.77 36.61 36.69 36.20 35.22 34.43 34.15 34.30 34.37 34.70 35.59 35.01 34.80 34.46 35.08 32.24 32.76
48.02 48.37 48.26 47.03 44.01 35.67 31.14 29.53 35.95 33.11 30.77 32.79 32.88 33.38 35.30 35.79 37.63 36.98 35.95 36.29 36.72 36.75 33.80 32.02 29.46 31.60 34.78 37.07 38.64 38.67 36.62 37.21 36.81 34.36 32.97 33.64 36.01 36.43 36.29 36.63 35.92 34.30 34.24 34.76 36.09 37.68 35.62 34.92 35.58 35.70 35.13 34.09 32.27 30.87
46.64 46.66 46.75 43.57 37.09 36.55 33.55 30.44 31.69 31.18 33.06 33.23 33.59 34.32 33.13 34.80 34.22 34.96 34.34 35.62 34.07 30.99 29.04 33.12 33.90 35.01 37.02 38.20 38.96 38.88 37.81 38.85 37.21 36.31 35.26 33.52 36.43 36.45 35.27 34.80 34.96 35.71 35.68 35.55 34.28 35.24 35.55 33.85 34.19 34.38 33.53 31.43 31.04 30.99
43.55 46.24 40.34 39.27 32.37 32.10 32.45 34.26 34.45 35.77 31.98 33.25 34.24 34.40 30.62 29.90 30.38 34.13 34.93 32.62 31.02 33.17 35.74 34.58 34.41 35.10 36.16 36.33 36.40 38.18 37.06 35.55 35.62 37.97 38.87 38.06 34.94 34.65 34.62 35.00 35.26 34.07 34.49 34.61 35.18 35.13 34.26 33.57 32.66 32.08 31.11 30.83 31.38 30.37
41.44 38.71 34.09 32.59 30.89 30.80 29.81 36.27 32.45 33.42 28.52 31.56 33.34 31.54 31.49 29.62 31.09 34.58 30.47 32.94 33.33 36.38 36.47 34.89 35.03 37.06 36.33 36.77 37.35 37.24 37.53 36.96 36.05 36.17 36.87 36.32 35.97 35.88 35.03 35.28 36.34 35.37 34.45 33.65 36.05 35.15 33.68 35.54 34.45 30.75 31.14 30.21 29.88 29.78
40.44 33.00 31.61 31.17 30.43 28.11 31.84 30.48 32.51 32.09 32.54 31.43 30.89 28.55 30.66 31.98 32.41 30.04 27.80 29.02 33.44 35.03 34.07 33.47 34.59 34.26 34.46 35.07 36.01 36.64 37.68 38.20 36.93 36.22 36.64 36.16 34.47 34.24 36.13 36.54 36.93 36.64 37.12 36.58 35.30 33.49 32.51 32.18 34.22 30.65 30.11 29.73 29.41 29.31
31.02 29.96 30.89 28.23 29.72 25.71 22.55 26.55 29.46 30.46 29.19 31.52 28.50 28.21 30.15 32.05 29.20 29.25 27.92 29.70 32.41 33.68 33.65 34.44 34.80 35.67 34.88 35.07 35.90 36.70 37.93 38.00 36.49 35.58 36.92 37.63 35.75 35.90 35.60 35.61 35.67 36.64 37.73 35.23 33.20 32.18 31.52 31.39 30.84 30.14 29.67 29.11 28.41 29.10
26.60 28.35 28.72 27.77 24.42 26.21 26.08 26.38 27.26 28.23 29.37 28.97 28.63 29.68 29.67 29.38 26.87 25.61 28.14 31.51 33.00 34.66 33.67 33.65 33.45 31.58 32.84 36.90 36.13 35.57 36.70 39.44 38.36 35.74 36.38 37.97 37.49 36.57 35.38 34.40 34.06 33.51 36.48 36.58 34.33 32.45 31.65 31.23 30.72 29.88 29.21 30.75 33.10 29.36
24.70 26.07 30.44 31.22 30.74 29.74 29.64 29.62 31.71 30.23 27.94 26.68 28.72 27.93 27.48 25.52 25.80 29.17 32.54 36.51 36.30 37.33 37.34 37.26 37.06 36.46 35.69 35.72 36.62 38.36 39.27 39.26 38.71 37.88 38.35 38.13 38.71 38.99 38.09 35.95 34.73 36.45 36.86 36.31 35.28 33.95 32.24 31.12 30.46 29.68 28.89 28.77 28.88 29.56
27.77 30.56 27.23 28.33 28.57 30.01 28.41 29.26 29.47 30.34 30.97 30.63 29.59 26.68 26.40 28.32 29.27 31.13 32.18 34.09 36.41 38.45 37.56 37.41 37.67 38.26 38.57 38.71 38.32 37.79 37.37 37.48 37.86 38.14 37.45 36.16 36.02 36.35 36.26 37.08 37.71 39.46 37.42 36.48 34.82 33.87 32.68 31.67 30.72 29.95 29.19 28.75 29.08 30.32
28.47 30.66 29.88 26.25 25.88 28.25 28.15 29.36 29.20 30.52 32.39 31.11 29.67 28.65 28.94 28.17 28.99 28.36 29.85 30.65 36.41 37.22 35.39 35.55 35.41 37.37 36.40 36.23 37.57 38.17 37.91 38.10 35.81 33.23 32.41 32.16 33.04 31.34 36.76 37.73 37.99 36.85 36.50 36.14 37.65 35.36 33.00 32.61 31.55 30.61 30.04 29.95 30.38 30.09
26.80 32.04 29.65 28.30 23.71 24.77 27.39 28.70 29.93 31.07 31.31 30.89 29.81 28.21 27.52 28.10 27.37 28.16 30.10 32.52 35.09 35.66 36.68 36.64 36.41 35.98 33.93 34.18 33.79 34.28 36.26 38.28 38.35 36.28 33.64 33.43 33.89 34.89 36.66 36.60 35.41 35.23 35.58 35.22 34.75 35.33 38.23 34.71 34.14 30.99 30.04 29.12 28.24 27.87
31.37 29.02 27.17 26.60 25.63 26.20 28.10 30.04 31.34 32.52 31.48 30.37 30.33 27.69 26.32 27.24 28.94 30.14 29.68 29.74 30.92 35.03 35.52 34.73 35.12 35.97 35.29 34.60 34.31 33.46 32.68 34.41 35.60 36.00 37.23 36.35 36.37 36.21 35.81 35.52 35.44 35.33 34.96 34.60 34.02 32.75 31.58 29.01 28.30 27.64 27.49 27.26 28.18 28.03
28.18 27.72 26.60 23.68 24.20 27.58 29.96 29.69 29.60 29.51 29.97 29.04 28.20 28.76 27.90 27.46 26.02 27.54 29.78 30.47 34.10 34.61 36.88 36.29 34.58 34.72 36.86 37.67 38.19 37.21 38.99 35.80 36.32 36.75 36.36 36.73 36.32 35.97 35.68 35.35 35.05 34.90 34.02 33.18 32.08 30.67 29.22 27.87 27.22 27.22 27.01 27.08 27.34 27.47
28.51 28.54 29.28 28.86 28.12 27.40 29.41 28.67 27.72 26.88 27.63 27.51 26.54 28.10 27.53 27.07 25.18 27.22 28.51 29.18 30.94 34.09 35.06 35.57 36.45 36.55 36.54 37.17 36.85 37.73 38.67 37.78 37.93 39.27 39.28 38.88 38.31 37.02 35.38 34.76 34.71 34.15 32.89 31.92 30.99 29.72 27.98 27.08 26.80 26.71 26.41 26.47 26.74 27.16